TimeEST,TemperatureF,Dew PointF,Humidity,Sea Level PressureIn,VisibilityMPH,Wind Direction,Wind SpeedMPH,Gust SpeedMPH,PrecipitationIn,Events,Conditions,WindDirDegrees,DateUTC
12:15 AM,21.2,15.8,80,29.69,0.2,North,23.0,44.9,N/A,,Unknown,350,2013-02-09 05:15:00
12:35 AM,21.2,15.8,80,29.68,0.2,North,20.7,26.5,N/A,,Unknown,350,2013-02-09 05:35:00
12:55 AM,21.2,15.8,80,29.68,0.2,North,19.6,26.5,N/A,,Unknown,350,2013-02-09 05:55:00
1:15 AM,21.2,15.8,80,29.68,0.2,NNW,15.0,26.5,N/A,,Overcast,340,2013-02-09 06:15:00
1:35 AM,21.2,15.8,80,29.68,0.2,NNW,18.4,26.5,N/A,,Overcast,340,2013-02-09 06:35:00
1:55 AM,21.2,15.8,80,29.69,0.2,NNW,20.7,28.8,N/A,,Unknown,340,2013-02-09 06:55:00
2:15 AM,21.2,15.8,80,29.69,0.2,NNW,16.1,24.2,0.01,,Unknown,340,2013-02-09 07:15:00
2:35 AM,21.2,15.8,80,29.70,0.5,NNW,20.7,27.6,0.01,,Overcast,340,2013-02-09 07:35:00
2:55 AM,21.2,15.8,80,29.70,0.5,NNW,16.1,27.6,0.01,,Overcast,340,2013-02-09 07:55:00
3:15 AM,21.2,15.8,80,29.70,0.5,NNW,16.1,25.3,N/A,,Overcast,330,2013-02-09 08:15:00
3:35 AM,21.2,15.8,80,29.71,1.0,NNW,12.7,23.0,N/A,,Overcast,330,2013-02-09 08:35:00
3:55 AM,23.0,15.8,74,29.71,1.0,NNW,13.8,19.6,N/A,,Overcast,330,2013-02-09 08:55:00
4:15 AM,23.0,15.8,74,29.72,1.0,NNW,11.5,18.4,N/A,,Overcast,330,2013-02-09 09:15:00
4:35 AM,23.0,15.8,74,29.72,1.5,NNW,11.5,24.2,N/A,,Overcast,330,2013-02-09 09:35:00
4:55 AM,23.0,15.8,74,29.72,1.5,NNW,16.1,24.2,N/A,,Overcast,340,2013-02-09 09:55:00
5:15 AM,23.0,15.8,74,29.73,1.8,NNW,18.4,25.3,N/A,,Overcast,330,2013-02-09 10:15:00
5:35 AM,21.2,15.8,80,29.73,1.8,NNW,16.1,25.3,N/A,,Overcast,330,2013-02-09 10:35:00
5:55 AM,21.2,15.8,80,29.74,1.8,NNW,11.5,27.6,N/A,,Overcast,330,2013-02-09 10:55:00
6:15 AM,21.2,14.0,74,29.75,2.0,NNW,13.8,20.7,N/A,,Overcast,330,2013-02-09 11:15:00
6:35 AM,21.2,12.2,68,29.75,3.0,NNW,16.1,29.9,N/A,,Overcast,340,2013-02-09 11:35:00
6:55 AM,21.2,12.2,68,29.76,3.0,NNW,19.6,28.8,N/A,,Overcast,340,2013-02-09 11:55:00
7:15 AM,21.2,12.2,68,29.77,2.0,NNW,16.1,29.9,N/A,,Overcast,330,2013-02-09 12:15:00
7:35 AM,21.2,10.4,63,29.79,5.0,NNW,17.3,29.9,N/A,,Overcast,330,2013-02-09 12:35:00
7:55 AM,21.2,10.4,63,29.80,5.0,NNW,18.4,31.1,N/A,,Overcast,340,2013-02-09 12:55:00
8:15 AM,21.2,10.4,63,29.82,2.5,NNW,20.7,34.5,N/A,,Overcast,340,2013-02-09 13:15:00
8:35 AM,21.2,8.6,58,29.83,1.2,NNW,20.7,33.4,N/A,,Overcast,340,2013-02-09 13:35:00
8:55 AM,21.2,8.6,58,29.84,0.5,NNW,17.3,31.1,N/A,,Overcast,340,2013-02-09 13:55:00
9:15 AM,21.2,10.4,63,29.85,0.2,NNW,19.6,25.3,N/A,,Overcast,330,2013-02-09 14:15:00
9:35 AM,21.2,8.6,58,29.86,4.0,NNW,18.4,28.8,N/A,,Partly Cloudy,330,2013-02-09 14:35:00
9:55 AM,21.2,8.6,58,29.87,0.5,NW,15.0,34.5,N/A,,Overcast,320,2013-02-09 14:55:00
10:15 AM,21.2,8.6,58,29.88,0.2,NNW,24.2,35.7,N/A,,Overcast,330,2013-02-09 15:15:00
10:35 AM,19.4,8.6,63,29.89,0.2,NNW,17.3,34.5,N/A,,Overcast,330,2013-02-09 15:35:00
10:55 AM,19.4,6.8,58,29.89,1.0,NW,19.6,35.7,N/A,,Overcast,320,2013-02-09 15:55:00
11:15 AM,19.4,6.8,58,29.90,1.0,NNW,17.3,40.3,N/A,,Overcast,330,2013-02-09 16:15:00
11:35 AM,19.4,6.8,58,29.90,1.5,NW,15.0,36.8,N/A,,Overcast,320,2013-02-09 16:35:00
11:55 AM,19.4,6.8,58,29.91,4.0,NNW,20.7,32.2,N/A,,Scattered Clouds,330,2013-02-09 16:55:00
12:15 PM,19.4,6.8,58,29.92,5.0,NW,15.0,28.8,N/A,,Mostly Cloudy,320,2013-02-09 17:15:00
12:35 PM,21.2,5.0,50,29.92,4.0,NNW,18.4,28.8,N/A,,Mostly Cloudy,330,2013-02-09 17:35:00
12:55 PM,21.2,5.0,50,29.93,2.0,NNW,17.3,28.8,N/A,,Scattered Clouds,330,2013-02-09 17:55:00
1:15 PM,21.2,5.0,50,29.92,1.5,NNW,20.7,35.7,N/A,,Mostly Cloudy,330,2013-02-09 18:15:00
1:35 PM,21.2,5.0,50,29.93,1.5,NNW,20.7,42.6,N/A,,Mostly Cloudy,330,2013-02-09 18:35:00
1:55 PM,21.2,5.0,50,29.94,1.8,NNW,25.3,35.7,N/A,,Mostly Cloudy,330,2013-02-09 18:55:00
2:15 PM,23.0,5.0,46,29.95,2.5,NNW,25.3,34.5,N/A,,Scattered Clouds,340,2013-02-09 19:15:00
2:30 PM,23.0,3.2,43,29.96,10.0,NNW,18.4,36.8,N/A,,Clear,340,2013-02-09 19:30:00
3:45 PM,24.8,1.4,36,30.03,10.0,NNW,13.8,24.2,N/A,,Clear,340,2013-02-09 20:45:00
4:45 PM,23.0,1.4,39,30.05,10.0,NNW,13.8,28.8,N/A,,Clear,330,2013-02-09 21:45:00
5:35 PM,21.2,1.4,42,30.09,10.0,NW,16.1,24.2,N/A,,Partly Cloudy,320,2013-02-09 22:35:00
5:55 PM,21.2,1.4,42,30.10,10.0,NNW,16.1,23.0,N/A,,Partly Cloudy,340,2013-02-09 22:55:00
6:15 PM,21.2,1.4,42,30.11,10.0,NNW,12.7,18.4,N/A,,Partly Cloudy,330,2013-02-09 23:15:00
6:35 PM,21.2,1.4,42,30.12,10.0,NNW,12.7,23.0,N/A,,Partly Cloudy,340,2013-02-09 23:35:00
6:55 PM,21.2,1.4,42,30.13,10.0,NNW,13.8,21.9,N/A,,Partly Cloudy,340,2013-02-09 23:55:00
7:15 PM,19.4,1.4,46,30.14,10.0,NNW,16.1,27.6,N/A,,Partly Cloudy,340,2013-02-10 00:15:00
7:35 PM,19.4,1.4,46,30.15,10.0,NNW,13.8,24.2,N/A,,Partly Cloudy,340,2013-02-10 00:35:00
7:55 PM,19.4,-0.4,42,30.16,10.0,NNW,12.7,19.6,N/A,,Partly Cloudy,340,2013-02-10 00:55:00
8:35 PM,19.4,-0.4,42,30.17,10.0,NNW,12.7,23.0,N/A,,Clear,330,2013-02-10 01:35:00
8:55 PM,19.4,-0.4,42,30.18,10.0,NNW,15.0,23.0,N/A,,Partly Cloudy,340,2013-02-10 01:55:00
9:15 PM,19.4,-0.4,42,30.19,10.0,North,17.3,26.5,N/A,,Partly Cloudy,350,2013-02-10 02:15:00
9:35 PM,17.6,-0.4,45,30.20,10.0,NNW,15.0,23.0,N/A,,Partly Cloudy,340,2013-02-10 02:35:00
9:55 PM,17.6,-0.4,45,30.21,10.0,NNW,16.1,21.9,N/A,,Partly Cloudy,340,2013-02-10 02:55:00
10:15 PM,17.6,-0.4,45,30.22,10.0,NNW,13.8,24.2,N/A,,Partly Cloudy,340,2013-02-10 03:15:00
10:35 PM,17.6,-2.2,42,30.23,10.0,NNW,13.8,20.7,N/A,,Partly Cloudy,330,2013-02-10 03:35:00
10:55 PM,17.6,-2.2,42,30.24,10.0,NNW,9.2,18.4,N/A,,Partly Cloudy,330,2013-02-10 03:55:00
11:15 PM,15.8,-2.2,45,30.24,10.0,NNW,15.0,19.6,N/A,,Clear,330,2013-02-10 04:15:00
11:35 PM,15.8,-2.2,45,30.25,10.0,NNW,13.8,18.4,N/A,,Clear,330,2013-02-10 04:35:00
11:55 PM,15.8,-2.2,45,30.26,10.0,NNW,6.9,-,N/A,,Clear,330,2013-02-10 04:55:00